Starlink 32041

operational
NORAD ID: 60202 Int'l Des: 2024-124 Owner: SPXS Country: US Constellation: starlink
LEOCIRCULAR

About Starlink 32041

Description loading...

Live Position

Loading 3D Globe...

Upcoming Passes

Altitude History

Altitude vs Time

uPlot chart will show altitude changes over time

Two-Line Element Set

1 60202U 24124V 25304.74644490 -.00003054 00000-0 -90992-4 0 9992
2 60202 53.1597 201.4400 0001452 84.6434 275.4732 15.30206529 75751
Epoch: Oct 31, 2025 • Age: 24 hours

Current Status

Altitude 475.2 km
Velocity 7.63 km/s
Sub-Earth Point 20.11°N, 91.63°W
Launch Date Jul 3, 2024
Age 1.3 years
Type internet

Technical Details

Classification Payload
Mass 730.00 kg
Dry Mass 700.00 kg
Total Mass 730.00 kg
Length 0.30 m
Diameter 4.10 m
Span 29.00 m
Shape Box + pan
Manufacturer SPXS
Bus Type Starlink V2M
Phase Status In Orbit
Owner/State SPXS/US

Large Constellations

Loading constellations...